Powrót do katalogu

KUIPER-00196

AktywnyŁącznośćLEO
NORAD 67144·PAYLOAD·🇺🇸 United States

Wystrzelony Dec 15, 2025 z Cape Canaveral Space Force Station

Loading…

Następne Przeloty (najbliższe 24 godziny)

TLE

ŚwieżeSource: CelesTrak SupGP

Epoka: Sep 14, 2026, 22:16 UTC

1 67144C 25301M   26257.92825232  .00002292  00000+0  30010-3 0  2576
2 67144  51.8965 273.7926 0000536  75.3737 173.4659 14.79916619    19

Śledź KUIPER-00196 w czasie rzeczywistym z AllMySat

Download on the App Store